Weather History for Alma, GA

Change the Weather History Date:

Sunday, May 26, 2013

  Actual Average Record
Temperature  
Mean Temperature 70 °F 76 °F  
Max Temperature 86 °F 88 °F 99 °F (1962)
Min Temperature 53 °F 65 °F 47 °F (1979)
Degree Days  
Heating Degree Days 0 0  
Month to date heating degree days 13 3  
Since 1 July heating degree days 1603 1656  
Cooling Degree Days 5 11  
Month to date cooling degree days 140 215  
Year to date cooling degree days 257 369  
Growing Degree Days 18 (Base 50)    
Moisture  
Dew Point 53 °F    
Average Humidity 63    
Maximum Humidity 93    
Minimum Humidity 32    
Precipitation  
Precipitation 0.00 in 0.10 in 1.43 in (1991)
Month to date precipitation 3.02 1.94  
Year to date precipitation 18.66 17.56  
Snow  
Snow 0.00 in 0.00 in 0.00 in ()
Month to date snowfall 0.0 0.0  
Since 1 July snowfall T 0.1  
Snow Depth 0.00 in    
Sea Level Pressure  
Sea Level Pressure 30.20 in    
Wind  
Wind Speed 3 mph (SW)    
Max Wind Speed 9 mph    
Max Gust Speed 14 mph    
Visibility 10 miles    
Events      
T = Trace of Precipitation, MM = Missing Value Source: NWS Daily Summary

Daily Weather History Graph

Daily Weather History Graph

Search for Another Location

Airport:

Trip Planner

Search our weather history database for the weather conditions in past years. The results will help you decide how hot, cold, wet, or windy it might be!

Date:

Astronomy

May. 26, 2013 Rise Set
Actual Time 6:27 AM EDT 8:26 PM EDT
Civil Twilight 6:00 AM EDT 8:54 PM EDT
Nautical Twilight 5:27 AM EDT 9:27 PM EDT
Astronomical Twilight 4:51 AM EDT 10:02 PM EDT
Moon 10:14 PM EDT (5/26) 7:54 AM EDT (5/26)
Length of Visible Light 14h 53m
Length of Day
13h 59m
Waning Gibbous, 97% of the Moon is Illuminated
May 26
Waning Gibbous
May 31
Last Quarter
Jun 8
New
Jun 16
First Quarter
Jun 23
Full

Hourly Weather History & Observations

Time (EDT) Temp. Dew Point Humidity Pressure Visibility Wind Dir Wind Speed Gust Speed Precip Events Conditions
12:53 AM 63.0 °F 54.0 °F 72% 30.21 in 10.0 mi SSE 3.5 mph - N/A   Clear
1:53 AM 57.0 °F 53.1 °F 87% 30.19 in 10.0 mi Calm Calm - N/A   Clear
2:53 AM 55.9 °F 53.1 °F 90% 30.17 in 10.0 mi Calm Calm - N/A   Clear
3:53 AM 53.1 °F 52.0 °F 96% 30.17 in 8.0 mi Calm Calm - N/A   Clear
4:53 AM 54.0 °F 52.0 °F 93% 30.18 in 7.0 mi Calm Calm - N/A   Clear
5:53 AM 53.1 °F 52.0 °F 96% 30.21 in 5.0 mi Calm Calm - N/A   Clear
6:53 AM 53.1 °F 52.0 °F 96% 30.23 in 7.0 mi Calm Calm - N/A   Clear
7:53 AM 61.0 °F 57.0 °F 87% 30.24 in 10.0 mi Calm Calm - N/A   Clear
8:53 AM 68.0 °F 57.0 °F 68% 30.26 in 10.0 mi SW 5.8 mph - N/A   Clear
9:53 AM 73.9 °F 53.1 °F 48% 30.26 in 10.0 mi Variable 6.9 mph - N/A   Clear
10:53 AM 77.0 °F 52.0 °F 42% 30.26 in 10.0 mi SSW 5.8 mph - N/A   Clear
11:53 AM 80.1 °F 52.0 °F 38% 30.26 in 10.0 mi West 4.6 mph - N/A   Clear
12:53 PM 81.0 °F 51.1 °F 35% 30.24 in 10.0 mi Variable 3.5 mph - N/A   Clear
1:53 PM 84.0 °F 52.0 °F 33% 30.22 in 10.0 mi NNW 8.1 mph - N/A   Clear
2:53 PM 84.0 °F 51.1 °F 32% 30.20 in 10.0 mi NW 5.8 mph - N/A   Clear
3:53 PM 84.0 °F 51.1 °F 32% 30.18 in 10.0 mi Calm Calm - N/A   Clear
4:53 PM 84.9 °F 52.0 °F 32% 30.17 in 10.0 mi Variable 3.5 mph - N/A   Clear
5:53 PM 84.9 °F 52.0 °F 32% 30.16 in 10.0 mi WSW 4.6 mph - N/A   Clear
6:53 PM 82.9 °F 52.0 °F 34% 30.14 in 10.0 mi SSW 5.8 mph - N/A   Clear
7:53 PM 79.0 °F 54.0 °F 42% 30.15 in 10.0 mi SW 3.5 mph - N/A   Clear
8:53 PM 70.0 °F 59.0 °F 68% 30.16 in 10.0 mi Calm Calm - N/A   Clear
9:53 PM 71.1 °F 57.0 °F 61% 30.17 in 10.0 mi ESE 4.6 mph - N/A   Clear
10:53 PM 68.0 °F 55.9 °F 65% 30.19 in 10.0 mi SE 3.5 mph - N/A   Clear
11:53 PM 64.9 °F 55.9 °F 73% 30.19 in 10.0 mi Calm Calm - N/A   Clear